| time (UTC) | temp C | wind direction | speed KPH | gust KPH | rain 1hr cm | rain 24hr cm | rain mn cm | humidity % | barometer mb |
| 20260504000520 | 13 | 295 | 8.0 | 14.5 | 0.00 | 0.00 | 0.00 | 80 | 1016.3 |
| 20260504000045 | 13 | 297 | 6.4 | 14.5 | 0.00 | 0.00 | 0.00 | 80 | 1016.4 |
| 20260503235520 | 13 | 278 | 8.0 | 14.5 | 0.00 | 0.00 | 0.00 | 80 | 1016.4 |
| 20260503235038 | 13 | 287 | 6.4 | 14.5 | 0.00 | 0.00 | 0.00 | 80 | 1016.4 |
| 20260503234542 | 13 | 296 | 9.7 | 16.1 | 0.00 | 0.00 | 0.00 | 79 | 1016.4 |
| 20260503234019 | 13 | 339 | 9.7 | 16.1 | 0.00 | 0.00 | 0.00 | 80 | 1016.3 |
| 20260503233544 | 13 | 322 | 12.9 | 17.7 | 0.00 | 0.00 | 0.00 | 80 | 1016.4 |
| 20260503233029 | 13 | 286 | 11.3 | 17.7 | 0.00 | 0.00 | 0.00 | 80 | 1016.4 |
| 20260503232027 | 13 | 322 | 11.3 | 17.7 | 0.00 | 0.00 | 0.00 | 80 | 1016.4 |
| 20260503231533 | 13 | 302 | 8.0 | 16.1 | 0.00 | 0.00 | 0.00 | 80 | 1016.4 |
| 20260503231011 | 13 | 301 | 8.0 | 16.1 | 0.00 | 0.00 | 0.00 | 80 | 1016.4 |
| 20260503230517 | 13 | 303 | 6.4 | 14.5 | 0.00 | 0.00 | 0.00 | 81 | 1016.3 |
| 20260503230024 | 13 | 334 | 9.7 | 16.1 | 0.00 | 0.00 | 0.00 | 81 | 1016.3 |
| 20260503225509 | 13 | 311 | 9.7 | 16.1 | 0.00 | 0.00 | 0.00 | 81 | 1016.3 |
| 20260503224522 | 13 | 298 | 8.0 | 17.7 | 0.00 | 0.00 | 0.00 | 81 | 1016.3 |
| 20260503224017 | 13 | 328 | 11.3 | 17.7 | 0.00 | 0.00 | 0.00 | 81 | 1016.3 |
| 20260503223520 | 13 | 329 | 9.7 | 16.1 | 0.00 | 0.00 | 0.00 | 81 | 1016.3 |
| 20260503223017 | 13 | 320 | 8.0 | 16.1 | 0.00 | 0.00 | 0.00 | 81 | 1016.3 |
| 20260503222513 | 13 | 327 | 8.0 | 12.9 | 0.00 | 0.00 | 0.00 | 81 | 1016.3 |
| 20260503222012 | 13 | 321 | 6.4 | 14.5 | 0.00 | 0.00 | 0.00 | 80 | 1016.3 |
| 20260503221517 | 13 | 311 | 8.0 | 14.5 | 0.00 | 0.00 | 0.00 | 80 | 1016.3 |
| 20260503221033 | 13 | 322 | 8.0 | 12.9 | 0.00 | 0.00 | 0.00 | 80 | 1016.3 |
| 20260503220516 | 13 | 349 | 8.0 | 12.9 | 0.00 | 0.00 | 0.00 | 80 | 1016.3 |
| 20260503220033 | 13 | 334 | 8.0 | 12.9 | 0.00 | 0.00 | 0.00 | 80 | 1016.3 |
| 20260503215530 | 13 | 313 | 6.4 | 11.3 | 0.00 | 0.00 | 0.00 | 80 | 1016.3 |
| 20260503215033 | 13 | 291 | 6.4 | 11.3 | 0.00 | 0.00 | 0.00 | 80 | 1016.2 |
| 20260503214013 | 13 | 345 | 6.4 | 11.3 | 0.00 | 0.00 | 0.00 | 80 | 1016.2 |
| 20260503213521 | 13 | 328 | 4.8 | 12.9 | 0.00 | 0.00 | 0.00 | 80 | 1016.1 |
| 20260503213039 | 13 | 332 | 8.0 | 12.9 | 0.00 | 0.00 | 0.00 | 79 | 1016.1 |
| 20260503212513 | 13 | 297 | 8.0 | 12.9 | 0.00 | 0.00 | 0.00 | 79 | 1016.1 |
| 20260503212011 | 13 | 320 | 6.4 | 12.9 | 0.00 | 0.00 | 0.00 | 79 | 1016.0 |
| 20260503211518 | 14 | 318 | 6.4 | 12.9 | 0.00 | 0.00 | 0.00 | 79 | 1016.0 |
| 20260503211014 | 14 | 308 | 8.0 | 11.3 | 0.00 | 0.00 | 0.00 | 79 | 1015.9 |
| 20260503210513 | 14 | 341 | 6.4 | 11.3 | 0.00 | 0.00 | 0.00 | 79 | 1015.9 |
| 20260503210021 | 14 | 289 | 6.4 | 12.9 | 0.00 | 0.00 | 0.00 | 79 | 1015.8 |
| 20260503205537 | 14 | 310 | 6.4 | 14.5 | 0.00 | 0.00 | 0.00 | 78 | 1015.8 |
| 20260503205014 | 14 | 325 | 9.7 | 14.5 | 0.00 | 0.00 | 0.00 | 78 | 1015.7 |
| 20260503204512 | 14 | 330 | 9.7 | 14.5 | 0.00 | 0.00 | 0.00 | 78 | 1015.6 |
| 20260503204038 | 14 | 354 | 11.3 | 14.5 | 0.00 | 0.00 | 0.00 | 78 | 1015.5 |
| 20260503203514 | 14 | 324 | 9.7 | 17.7 | 0.00 | 0.00 | 0.00 | 77 | 1015.4 |
| 20260503203019 | 14 | 342 | 11.3 | 19.3 | 0.00 | 0.00 | 0.00 | 77 | 1015.4 |
| 20260503202024 | 15 | 344 | 9.7 | 19.3 | 0.00 | 0.00 | 0.00 | 77 | 1015.3 |
| 20260503201528 | 15 | 358 | 12.9 | 19.3 | 0.00 | 0.00 | 0.00 | 77 | 1015.1 |
| 20260503201032 | 15 | 312 | 12.9 | 20.9 | 0.00 | 0.00 | 0.00 | 76 | 1015.1 |
| 20260503200509 | 15 | 316 | 11.3 | 19.3 | 0.00 | 0.00 | 0.00 | 77 | 1015.0 |
| 20260503200036 | 15 | 327 | 11.3 | 19.3 | 0.00 | 0.00 | 0.00 | 77 | 1014.9 |
| 20260503195512 | 15 | 332 | 9.7 | 19.3 | 0.00 | 0.00 | 0.00 | 77 | 1014.9 |
| 20260503195030 | 15 | 322 | 9.7 | 0.0 | 0.00 | 0.00 | 0.00 | 77 | 1014.8 |
| 20260503194025 | 15 | 327 | 11.3 | 22.5 | 0.00 | 0.00 | 0.00 | 76 | 1014.7 |
| 20260503193523 | 15 | 312 | 14.5 | 24.1 | 0.00 | 0.00 | 0.00 | 76 | 1014.7 |
| 20260503193028 | 15 | 348 | 14.5 | 24.1 | 0.00 | 0.00 | 0.00 | 75 | 1014.6 |
| 20260503192545 | 15 | 351 | 14.5 | 22.5 | 0.00 | 0.00 | 0.00 | 75 | 1014.6 |
| 20260503192029 | 15 | 329 | 11.3 | 22.5 | 0.00 | 0.00 | 0.00 | 74 | 1014.5 |
| 20260503191527 | 16 | 343 | 12.9 | 22.5 | 0.00 | 0.00 | 0.00 | 73 | 1014.5 |
| 20260503190527 | 16 | 307 | 14.5 | 19.3 | 0.00 | 0.00 | 0.00 | 72 | 1014.3 |
| 20260503190013 | 16 | 316 | 14.5 | 25.7 | 0.00 | 0.00 | 0.00 | 71 | 1014.2 |
| 20260503185517 | 16 | 321 | 17.7 | 25.7 | 0.00 | 0.00 | 0.00 | 70 | 1014.2 |
| 20260503185023 | 16 | 328 | 17.7 | 25.7 | 0.00 | 0.00 | 0.00 | 70 | 1014.2 |
| 20260503184528 | 16 | 332 | 12.9 | 27.4 | 0.00 | 0.00 | 0.00 | 70 | 1014.2 |
| 20260503184053 | 16 | 329 | 20.9 | 27.4 | 0.00 | 0.00 | 0.00 | 69 | 1014.1 |
| 20260503183530 | 16 | 327 | 14.5 | 27.4 | 0.00 | 0.00 | 0.00 | 69 | 1014.0 |
| 20260503183035 | 16 | 338 | 17.7 | 27.4 | 0.00 | 0.00 | 0.00 | 69 | 1014.0 |
| 20260503182026 | 16 | 311 | 17.7 | 27.4 | 0.00 | 0.00 | 0.00 | 70 | 1013.9 |
| 20260503181529 | 17 | 303 | 16.1 | 25.7 | 0.00 | 0.00 | 0.00 | 70 | 1014.0 |
| 20260503181014 | 17 | 342 | 19.3 | 25.7 | 0.00 | 0.00 | 0.00 | 69 | 1014.0 |
| 20260503180533 | 17 | 334 | 12.9 | 22.5 | 0.00 | 0.00 | 0.00 | 68 | 1014.0 |
| 20260503180011 | 17 | 319 | 14.5 | 25.7 | 0.00 | 0.00 | 0.00 | 68 | 1014.0 |
| 20260503175615 | 17 | 322 | 16.1 | 25.7 | 0.00 | 0.00 | 0.00 | 67 | 1014.0 |
| 20260503175035 | 17 | 351 | 14.5 | 25.7 | 0.00 | 0.00 | 0.00 | 68 | 1013.9 |
| 20260503174513 | 17 | 299 | 17.7 | 27.4 | 0.00 | 0.00 | 0.00 | 67 | 1013.9 |
| 20260503174011 | 17 | 334 | 16.1 | 27.4 | 0.00 | 0.00 | 0.00 | 66 | 1014.0 |
| 20260503173536 | 17 | 311 | 16.1 | 27.4 | 0.00 | 0.00 | 0.00 | 66 | 1013.9 |
| 20260503173014 | 17 | 290 | 16.1 | 27.4 | 0.00 | 0.00 | 0.00 | 65 | 1014.0 |
| 20260503172525 | 17 | 290 | 12.9 | 27.4 | 0.00 | 0.00 | 0.00 | 65 | 1014.0 |
| 20260503172019 | 17 | 318 | 17.7 | 27.4 | 0.00 | 0.00 | 0.00 | 66 | 1014.0 |
| 20260503171536 | 17 | 320 | 14.5 | 27.4 | 0.00 | 0.00 | 0.00 | 66 | 1014.0 |
| 20260503171022 | 17 | 282 | 16.1 | 24.1 | 0.00 | 0.00 | 0.00 | 66 | 1014.0 |
| 20260503170519 | 17 | 325 | 17.7 | 24.1 | 0.00 | 0.00 | 0.00 | 65 | 1014.0 |
| 20260503150524 | 17 | 299 | 16.1 | 27.4 | 0.00 | 0.00 | 0.00 | 70 | 1014.2 |
| 20260503131023 | 18 | 220 | 9.7 | 17.7 | 0.00 | 0.00 | 0.00 | 70 | 1014.5 |
| 20260503130528 | 18 | 281 | 3.2 | 19.3 | 0.00 | 0.00 | 0.00 | 70 | 1014.5 |
| 20260503110512 | 18 | 255 | 16.1 | 20.9 | 0.00 | 0.00 | 0.00 | 72 | 1015.2 |
| 20260503081520 | 16 | 275 | 3.2 | 11.3 | 0.00 | 0.20 | 0.00 | 79 | 1015.2 |
| 20260503081020 | 15 | 282 | 6.4 | 11.3 | 0.00 | 0.20 | 0.00 | 80 | 1015.2 |
| 20260503080524 | 15 | 273 | 3.2 | 9.7 | 0.00 | 0.20 | 0.00 | 80 | 1015.2 |
| 20260503072519 | 15 | 273 | 6.4 | 11.3 | 0.00 | 0.20 | 0.00 | 83 | 1015.1 |
| 20260503072023 | 15 | 255 | 6.4 | 11.3 | 0.00 | 0.20 | 0.00 | 83 | 1015.0 |
| 20260503071524 | 15 | 190 | 3.2 | 8.0 | 0.00 | 0.20 | 0.00 | 83 | 1015.0 |
| 20260503071047 | 15 | 285 | 4.8 | 12.9 | 0.00 | 0.20 | 0.00 | 84 | 1015.0 |
| 20260503070531 | 14 | 264 | 8.0 | 12.9 | 0.00 | 0.20 | 0.00 | 84 | 1015.0 |
| 20260503054555 | 13 | 250 | 3.2 | 8.0 | 0.00 | 0.20 | 0.00 | 85 | 1014.7 |
| 20260503054011 | 13 | 246 | 6.4 | 8.0 | 0.00 | 0.20 | 0.00 | 85 | 1014.7 |
| 20260503053529 | 13 | 259 | 4.8 | 6.4 | 0.00 | 0.20 | 0.00 | 85 | 1014.6 |
| 20260503052514 | 13 | 259 | 4.8 | 6.4 | 0.00 | 0.20 | 0.00 | 85 | 1014.5 |
| 20260503052020 | 13 | 261 | 3.2 | 6.4 | 0.00 | 0.20 | 0.00 | 85 | 1014.5 |
| 20260503051552 | 13 | 262 | 4.8 | 6.4 | 0.00 | 0.20 | 0.00 | 85 | 1014.5 |
| 20260503051030 | 13 | 267 | 4.8 | 8.0 | 0.00 | 0.20 | 0.00 | 85 | 1014.5 |
| 20260503050535 | 13 | 270 | 3.2 | 4.8 | 0.00 | 0.20 | 0.00 | 85 | 1014.5 |
| 20260503050014 | 13 | 270 | 3.2 | 4.8 | 0.00 | 0.20 | 0.00 | 85 | 1014.5 |
| 20260503045523 | 13 | 270 | 3.2 | 3.2 | 0.00 | 0.20 | 0.00 | 85 | 1014.5 |
| 20260503045028 | 13 | 270 | 1.6 | 4.8 | 0.00 | 0.20 | 0.00 | 85 | 1014.6 |
| 20260503044555 | 13 | 270 | 3.2 | 4.8 | 0.00 | 0.20 | 0.00 | 84 | 1014.5 |
| 20260503044030 | 13 | 270 | 3.2 | 4.8 | 0.00 | 0.20 | 0.00 | 84 | 1014.6 |
| 20260503043530 | 13 | 270 | 3.2 | 6.4 | 0.00 | 0.20 | 0.00 | 85 | 1014.6 |
| 20260503043036 | 13 | 270 | 4.8 | 4.8 | 0.00 | 0.20 | 0.00 | 85 | 1014.6 |
| 20260503042519 | 13 | 271 | 3.2 | 6.4 | 0.00 | 0.20 | 0.00 | 85 | 1014.5 |
| 20260503042104 | 13 | 271 | 4.8 | 0.0 | 0.00 | 0.00 | 0.00 | 85 | 1014.4 |
| 20260503041522 | 13 | 272 | 4.8 | 8.0 | 0.00 | 0.20 | 0.00 | 85 | 1014.5 |
| 20260503041109 | 13 | 272 | 4.8 | 8.0 | 0.00 | 0.20 | 0.00 | 85 | 1014.6 |
| 20260503040526 | 13 | 281 | 6.4 | 8.0 | 0.00 | 0.20 | 0.00 | 85 | 1014.6 |
| 20260503040032 | 13 | 279 | 4.8 | 9.7 | 0.00 | 0.20 | 0.00 | 85 | 1014.5 |
| 20260503035528 | 13 | 278 | 4.8 | 9.7 | 0.00 | 0.20 | 0.00 | 85 | 1014.6 |
| 20260503035025 | 13 | 283 | 4.8 | 9.7 | 0.00 | 0.20 | 0.00 | 85 | 1014.6 |
| 20260503034032 | 13 | 278 | 6.4 | 8.0 | 0.00 | 0.20 | 0.00 | 85 | 1014.5 |
| 20260503033519 | 13 | 278 | 4.8 | 8.0 | 0.00 | 0.20 | 0.00 | 85 | 1014.6 |
| 20260503033015 | 13 | 278 | 4.8 | 4.8 | 0.00 | 0.20 | 0.00 | 84 | 1014.6 |
| 20260503032528 | 13 | 277 | 3.2 | 8.0 | 0.00 | 0.20 | 0.00 | 84 | 1014.6 |
| 20260503032017 | 13 | 276 | 3.2 | 8.0 | 0.00 | 0.20 | 0.00 | 84 | 1014.6 |
| 20260503031515 | 13 | 274 | 3.2 | 8.0 | 0.00 | 0.20 | 0.00 | 84 | 1014.7 |
| 20260503031013 | 13 | 268 | 3.2 | 6.4 | 0.00 | 0.20 | 0.00 | 84 | 1014.7 |
| 20260503030519 | 13 | 276 | 3.2 | 0.0 | 0.00 | 0.00 | 0.00 | 84 | 1014.6 |
| 20260503030010 | 13 | 274 | 3.2 | 8.0 | 0.00 | 0.20 | 0.00 | 84 | 1014.7 |
| 20260503025523 | 13 | 274 | 4.8 | 8.0 | 0.00 | 0.20 | 0.00 | 84 | 1014.7 |
| 20260503025019 | 13 | 276 | 6.4 | 9.7 | 0.00 | 0.20 | 0.00 | 84 | 1014.6 |
| 20260503024525 | 13 | 266 | 4.8 | 11.3 | 0.00 | 0.20 | 0.00 | 84 | 1014.7 |
| 20260503024022 | 14 | 280 | 6.4 | 11.3 | 0.00 | 0.20 | 0.00 | 84 | 1014.6 |
| 20260503023527 | 14 | 281 | 6.4 | 9.7 | 0.00 | 0.20 | 0.00 | 84 | 1014.7 |
| 20260503023016 | 14 | 272 | 4.8 | 9.7 | 0.00 | 0.20 | 0.00 | 84 | 1014.7 |
| 20260503022512 | 14 | 274 | 4.8 | 8.0 | 0.00 | 0.20 | 0.00 | 84 | 1014.7 |
| 20260503022030 | 14 | 275 | 4.8 | 8.0 | 0.00 | 0.20 | 0.00 | 84 | 1014.8 |
| 20260503021535 | 14 | 274 | 4.8 | 8.0 | 0.00 | 0.20 | 0.00 | 84 | 1014.9 |
| 20260503021012 | 14 | 291 | 3.2 | 9.7 | 0.00 | 0.20 | 0.00 | 84 | 1014.8 |
| 20260503020511 | 14 | 294 | 3.2 | 9.7 | 0.00 | 0.20 | 0.00 | 84 | 1014.9 |
| 20260503020016 | 14 | 287 | 3.2 | 8.0 | 0.00 | 0.20 | 0.00 | 84 | 1014.9 |
| 20260503015532 | 14 | 289 | 1.6 | 8.0 | 0.00 | 0.20 | 0.00 | 84 | 1014.9 |
| 20260503014512 | 14 | 278 | 3.2 | 11.3 | 0.00 | 0.20 | 0.00 | 84 | 1015.0 |
| 20260503014016 | 14 | 268 | 4.8 | 8.0 | 0.00 | 0.20 | 0.00 | 84 | 1015.0 |
| 20260503013535 | 15 | 261 | 4.8 | 11.3 | 0.00 | 0.20 | 0.00 | 84 | 1015.1 |
| 20260503013020 | 15 | 257 | 1.6 | 12.9 | 0.00 | 0.20 | 0.00 | 84 | 1015.1 |
| 20260503012518 | 15 | 264 | 6.4 | 12.9 | 0.00 | 0.20 | 0.00 | 84 | 1015.2 |
| 20260503012023 | 15 | 260 | 4.8 | 8.0 | 0.00 | 0.20 | 0.00 | 84 | 1015.3 |
| 20260503011521 | 15 | 269 | 3.2 | 4.8 | 0.00 | 0.20 | 0.00 | 84 | 1015.3 |
| 20260503011032 | 15 | 273 | 0.0 | 4.8 | 0.00 | 0.20 | 0.00 | 84 | 1015.3 |
| 20260503010529 | 15 | 273 | 3.2 | 6.4 | 0.00 | 0.20 | 0.00 | 84 | 1015.3 |
| 20260503010035 | 15 | 273 | 3.2 | 9.7 | 0.00 | 0.20 | 0.00 | 84 | 1015.3 |
| 20260503005523 | 15 | 270 | 4.8 | 9.7 | 0.00 | 0.20 | 0.00 | 84 | 1015.4 |
| 20260503005048 | 15 | 265 | 1.6 | 4.8 | 0.00 | 0.20 | 0.00 | 84 | 1015.4 |
| 20260503004525 | 15 | 264 | 1.6 | 8.0 | 0.00 | 0.20 | 0.00 | 84 | 1015.5 |
| 20260503004033 | 15 | 264 | 6.4 | 11.3 | 0.00 | 0.20 | 0.00 | 84 | 1015.6 |
| 20260503003530 | 15 | 264 | 6.4 | 12.9 | 0.00 | 0.20 | 0.00 | 84 | 1015.7 |
| 20260503003055 | 15 | 255 | 8.0 | 12.9 | 0.00 | 0.20 | 0.00 | 83 | 1015.7 |
| 20260503002522 | 15 | 257 | 6.4 | 11.3 | 0.00 | 0.20 | 0.00 | 83 | 1015.6 |
| 20260503002020 | 15 | 228 | 3.2 | 6.4 | 0.00 | 0.20 | 0.00 | 83 | 1015.7 |
| 20260503001525 | 15 | 246 | 1.6 | 8.0 | 0.00 | 0.20 | 0.00 | 83 | 1015.8 |
| 20260503001050 | 15 | 245 | 1.6 | 12.9 | 0.00 | 0.20 | 0.00 | 83 | 1015.8 |